Flag for Lithuania Weather past 2 weeks in Kaunas, Lithuania

Now
63 °F

Scattered clouds.


Feels Like: 63 °F
Forecast: 45 / 66 °F
Wind: 13 mph from Northeast

Location: Kaunas

Current Time: Sep 1, 2014 at 3:19:15 PM

Latest Report: Sep 1, 2014 at 2:50 PM


Visibility: N/A

Pressure: 30.09 "Hg

Humidity: 49%

Dew point: 43 °F

Location of KaunasLocation

Historic Weather in Kaunas — Graph

°F

Kaunas temperature yesterday

Maximum temperature yesterday: 64 °F (at 3:20 PM)
Minimum temperature yesterday: 48 °F (at 11:20 PM)
Average temperature yesterday: 57 °F

Past Weeks' High & Low Weather Summary

 TemperatureHumidityPressure
High72 °F (Aug 18, 2:20 PM)100% (Aug 24, 1:20 AM)30.09 "Hg (Aug 24, 1:20 AM)
Low43 °F (Aug 30, 2:50 AM)35% (Aug 22, 3:20 PM)29.59 "Hg (Aug 27, 8:50 AM)
Average57 °F74%29.85 "Hg
* Reported Aug 17 2:20 PM — Sep 1 2:20 PM, Kaunas, Weather by CustomWeather, © 2014

Note: Actual official high and low records may vary slightly from our data, if they occured in-between our weather recording intervals... More about our weather records

Advertising

Kaunas weather history for previous 24 hours

 ConditionsComfort  
Time TempWeatherWind HumidityBarometerVisibility
2:20 PM
Sep 1
63 °FScattered clouds.9 mph52%30.09 "HgN/A
1:50 PM63 °FScattered clouds.10 mph49%30.09 "HgN/A
1:20 PM63 °FScattered clouds.9 mph52%30.09 "HgN/A
12:50 PM63 °FScattered clouds.10 mph52%30.09 "HgN/A
12:20 PM61 °FScattered clouds.9 mph55%30.09 "HgN/A
11:50 AM61 °FPassing clouds.10 mph59%30.09 "HgN/A
11:20 AM59 °FScattered clouds.12 mph63%30.09 "HgN/A
10:50 AM57 °FScattered clouds.8 mph67%30.09 "HgN/A
10:20 AM57 °FPassing clouds.6 mph72%30.09 "HgN/A
9:50 AM55 °FPassing clouds.6 mph77%30.09 "HgN/A
9:20 AM52 °FPassing clouds.6 mph88%30.09 "HgN/A
8:50 AM50 °FPassing clouds.3 mph88%30.09 "HgN/A
8:20 AM48 °FPassing clouds.5 mph87%30.07 "HgN/A
7:50 AM48 °FPassing clouds.5 mph87%30.07 "HgN/A
7:20 AM46 °FFog.1 mph87%30.07 "HgN/A
6:50 AM45 °FPassing clouds.3 mph93%30.07 "HgN/A
6:20 AM46 °FPassing clouds.3 mph87%30.07 "HgN/A
5:50 AM46 °FPassing clouds.6 mph93%30.07 "HgN/A
5:20 AM46 °FPassing clouds.6 mph93%30.07 "HgN/A
4:50 AM48 °FPassing clouds.6 mph87%30.07 "HgN/A
4:20 AM48 °FPassing clouds.6 mph87%30.07 "HgN/A
3:50 AM46 °FClear.6 mph93%30.07 "Hg10 mi
3:20 AM46 °FCool.3 mph93%30.07 "HgN/A
2:50 AM46 °FPassing clouds.3 mph93%30.07 "HgN/A
2:20 AM46 °FCool.2 mph93%30.07 "HgN/A
1:50 AM46 °FCool.1 mph93%30.07 "Hg6 mi
1:20 AM48 °FCool.2 mph87%30.07 "HgN/A
12:50 AM48 °FClear.2 mph87%30.07 "Hg10 mi
12:20 AM48 °FPassing clouds.5 mph87%30.07 "HgN/A
11:50 PM
Aug 31
48 °FClear.2 mph87%30.07 "Hg10 mi
11:20 PM48 °FClear.2 mph87%30.07 "Hg10 mi
10:50 PM50 °FClear.5 mph88%30.07 "Hg10 mi
10:20 PM52 °FClear.3 mph82%30.04 "Hg10 mi
9:50 PM52 °FClear.3 mph82%30.04 "Hg10 mi
9:20 PM54 °FPassing clouds.6 mph72%30.04 "HgN/A
8:50 PM54 °FSunny.6 mph77%30.04 "Hg10 mi
8:20 PM57 °FSunny.8 mph67%30.04 "Hg10 mi
7:50 PM57 °FPassing clouds.7 mph72%30.04 "HgN/A
7:20 PM59 °FSunny.10 mph68%30.04 "Hg10 mi
6:50 PM59 °FOvercast.9 mph68%30.04 "HgN/A
6:20 PM59 °FOvercast.9 mph68%30.04 "HgN/A
5:50 PM61 °FMore clouds than sun.9 mph63%30.04 "HgN/A
5:20 PM63 °FCloudy.8 mph59%30.04 "HgN/A
4:50 PM63 °FMostly cloudy.7 mph59%30.04 "HgN/A
4:20 PM63 °FMostly cloudy.8 mph59%30.01 "HgN/A
3:50 PM61 °FBroken clouds.8 mph63%30.04 "HgN/A
3:20 PM64 °FBroken clouds.10 mph60%30.04 "HgN/A
Weather by CustomWeather, © 2014

See weather overviewHow to use our weather pages